Total_Precipitation_Accumulation
0.71 0.58 0.76 0.82 0.80 0.93 1.35 1.41 1.35 0.81 0.53 0.49 0.50 0.57 0.56 0.52 0.50 0.51 0.53 0.56 0.59 0.63 0.69 0.73 0.75 0.82 0.82 0.79 0.78 0.72 0.77 0.87 0.92 1.00 1.09 1.20 1.30 1.37 1.46 1.48 1.51 1.55 1.58 1.61
0.78 0.49 0.58 0.67 0.65 0.70 0.82 0.90 0.93 0.70 0.66 0.57 0.53 0.49 0.47 0.46 0.45 0.48 0.51 0.54 0.55 0.54 0.60 0.64 0.74 0.82 0.89 0.88 0.84 0.78 0.76 0.80 0.88 0.97 1.01 1.07 1.17 1.28 1.37 1.47 1.51 1.53 1.61 1.65
1.00 0.55 0.71 0.87 0.77 0.76 0.78 0.79 0.81 0.86 0.78 0.62 0.56 0.52 0.51 0.49 0.45 0.46 0.46 0.47 0.48 0.51 0.57 0.60 0.67 0.76 0.86 0.90 0.87 0.85 0.82 0.81 0.85 0.93 1.02 1.08 1.11 1.20 1.37 1.47 1.62 1.69 1.70 1.78
1.23 0.83 1.05 0.84 0.62 0.64 0.69 0.73 0.77 0.74 0.64 0.59 0.56 0.55 0.54 0.49 0.45 0.43 0.43 0.44 0.44 0.46 0.48 0.51 0.55 0.65 0.77 0.82 0.86 0.87 0.87 0.89 0.91 0.93 1.05 1.16 1.19 1.24 1.35 1.46 1.60 1.75 1.79 1.81
1.44 1.07 0.72 0.47 0.44 0.60 0.70 0.74 0.71 0.58 0.47 0.44 0.44 0.46 0.47 0.43 0.41 0.44 0.45 0.49 0.48 0.48 0.51 0.50 0.53 0.62 0.73 0.80 0.82 0.85 0.89 0.93 0.97 1.00 1.11 1.22 1.24 1.27 1.33 1.40 1.48 1.56 1.64 1.65
1.51 1.27 0.72 0.49 0.31 0.35 0.56 0.81 0.59 0.52 0.51 0.49 0.49 0.59 0.52 0.43 0.41 0.44 0.43 0.45 0.50 0.52 0.51 0.54 0.58 0.62 0.72 0.83 0.92 0.97 1.00 1.03 1.07 1.15 1.27 1.33 1.32 1.30 1.29 1.30 1.31 1.29 1.31 1.30
1.24 1.19 0.66 0.45 0.28 0.30 0.78 0.93 0.52 0.50 0.53 0.56 0.61 0.64 0.54 0.42 0.39 0.44 0.46 0.46 0.48 0.52 0.55 0.59 0.64 0.65 0.69 0.77 0.94 1.04 1.08 1.10 1.11 1.19 1.27 1.31 1.29 1.23 1.22 1.19 1.17 1.13 1.11 1.10
0.97 1.26 0.91 0.47 0.37 0.69 0.89 0.57 0.50 0.50 0.53 0.56 0.55 0.46 0.40 0.40 0.39 0.39 0.41 0.43 0.49 0.56 0.59 0.60 0.66 0.74 0.74 0.79 0.89 0.95 1.01 1.03 1.03 1.05 1.11 1.19 1.23 1.19 1.15 1.15 1.14 1.12 1.11 1.13
0.89 0.97 0.83 0.63 0.69 0.73 0.63 0.58 0.49 0.50 0.50 0.50 0.48 0.45 0.39 0.37 0.37 0.39 0.41 0.44 0.50 0.60 0.65 0.66 0.68 0.74 0.80 0.78 0.78 0.83 0.90 0.95 0.94 0.91 0.94 1.01 1.08 1.12 1.14 1.15 1.14 1.13 1.13 1.15
0.77 0.74 0.63 0.59 0.53 0.49 0.50 0.54 0.49 0.46 0.46 0.48 0.49 0.45 0.42 0.39 0.38 0.37 0.38 0.43 0.50 0.55 0.60 0.63 0.64 0.67 0.70 0.67 0.66 0.69 0.75 0.83 0.86 0.86 0.87 0.88 0.92 1.01 1.08 1.14 1.15 1.11 1.13 1.17
0.67 0.58 0.48 0.46 0.46 0.47 0.44 0.40 0.37 0.36 0.37 0.42 0.45 0.43 0.42 0.43 0.41 0.41 0.42 0.45 0.49 0.56 0.61 0.63 0.60 0.61 0.62 0.61 0.61 0.65 0.66 0.71 0.74 0.81 0.86 0.90 0.92 1.00 1.10 1.15 1.26 1.29 1.20 1.16
0.74 0.58 0.60 0.59 0.49 0.44 0.42 0.40 0.39 0.37 0.34 0.33 0.37 0.41 0.38 0.39 0.39 0.41 0.46 0.47 0.49 0.51 0.57 0.64 0.63 0.60 0.59 0.59 0.61 0.67 0.70 0.70 0.74 0.82 0.86 0.88 0.90 0.96 1.06 1.12 1.18 1.21 1.24 1.23
0.57 0.46 0.44 0.42 0.35 0.34 0.37 0.37 0.35 0.36 0.37 0.37 0.37 0.37 0.39 0.40 0.40 0.43 0.47 0.46 0.50 0.52 0.54 0.59 0.64 0.64 0.60 0.62 0.64 0.68 0.76 0.78 0.79 0.83 0.89 0.88 0.87 0.90 0.97 1.01 1.04 1.06 1.12 1.18
0.31 0.30 0.31 0.28 0.30 0.28 0.29 0.29 0.28 0.28 0.30 0.35 0.38 0.37 0.38 0.40 0.41 0.45 0.51 0.53 0.52 0.52 0.53 0.54 0.58 0.64 0.64 0.63 0.64 0.68 0.73 0.79 0.83 0.86 0.91 0.91 0.89 0.89 0.91 0.94 0.96 0.98 1.02 1.10
0.19 0.25 0.32 0.28 0.22 0.22 0.23 0.23 0.22 0.23 0.25 0.28 0.28 0.31 0.36 0.42 0.48 0.53 0.57 0.56 0.50 0.48 0.48 0.49 0.52 0.57 0.61 0.65 0.67 0.68 0.71 0.75 0.79 0.85 0.91 0.94 0.93 0.92 0.92 0.90 0.90 0.93 0.95 1.06
0.20 0.19 0.19 0.18 0.19 0.19 0.19 0.22 0.26 0.27 0.27 0.29 0.31 0.35 0.40 0.43 0.45 0.47 0.52 0.56 0.55 0.53 0.51 0.49 0.52 0.56 0.59 0.65 0.67 0.66 0.67 0.77 0.83 0.87 0.89 0.90 0.93 0.96 0.95 0.91 0.90 0.89 0.90 0.99
0.28 0.26 0.24 0.25 0.23 0.22 0.22 0.25 0.30 0.31 0.30 0.33 0.39 0.41 0.40 0.39 0.39 0.41 0.47 0.51 0.52 0.53 0.54 0.57 0.59 0.55 0.57 0.61 0.65 0.67 0.68 0.72 0.80 0.84 0.87 0.90 0.93 0.96 0.96 0.94 0.93 0.91 0.90 0.98
0.31 0.32 0.32 0.34 0.33 0.30 0.27 0.26 0.27 0.29 0.31 0.34 0.36 0.37 0.39 0.41 0.44 0.47 0.48 0.46 0.42 0.41 0.43 0.48 0.53 0.53 0.53 0.58 0.66 0.69 0.70 0.72 0.72 0.78 0.86 0.92 0.97 0.99 0.99 0.96 0.92 0.91 0.90 0.95
0.24 0.25 0.25 0.27 0.29 0.29 0.28 0.28 0.29 0.30 0.31 0.31 0.33 0.36 0.38 0.40 0.43 0.44 0.41 0.40 0.41 0.44 0.45 0.44 0.49 0.48 0.50 0.56 0.66 0.68 0.72 0.74 0.75 0.79 0.87 0.96 1.00 0.98 1.00 0.98 0.95 0.92 0.93 0.93
0.18 0.20 0.22 0.24 0.24 0.26 0.28 0.28 0.28 0.29 0.30 0.31 0.32 0.31 0.32 0.36 0.39 0.39 0.37 0.38 0.47 0.56 0.54 0.51 0.48 0.45 0.49 0.55 0.65 0.68 0.73 0.77 0.80 0.82 0.88 0.92 0.96 0.97 0.97 0.98 0.98 0.96 0.94 0.94
0.19 0.20 0.23 0.25 0.26 0.26 0.28 0.28 0.28 0.28 0.29 0.28 0.30 0.33 0.35 0.37 0.37 0.39 0.39 0.39 0.41 0.45 0.47 0.47 0.45 0.48 0.56 0.64 0.68 0.68 0.72 0.78 0.82 0.86 0.90 0.92 0.94 0.95 0.95 0.96 0.97 0.98 0.97 0.96
0.22 0.23 0.26 0.28 0.29 0.29 0.28 0.28 0.27 0.27 0.26 0.25 0.26 0.27 0.28 0.30 0.31 0.33 0.35 0.42 0.46 0.48 0.45 0.42 0.47 0.59 0.69 0.73 0.68 0.67 0.72 0.76 0.80 0.83 0.88 0.92 0.95 0.97 0.97 0.98 1.00 1.00 0.99 0.99
0.24 0.26 0.27 0.29 0.31 0.32 0.30 0.29 0.29 0.28 0.27 0.27 0.29 0.31 0.33 0.35 0.36 0.39 0.42 0.38 0.41 0.45 0.43 0.45 0.55 0.64 0.68 0.64 0.62 0.65 0.70 0.75 0.78 0.82 0.86 0.90 0.95 0.99 1.00 0.98 0.98 0.98 0.99 0.98
0.26 0.26 0.27 0.27 0.26 0.26 0.26 0.26 0.27 0.27 0.27 0.28 0.29 0.32 0.35 0.35 0.33 0.33 0.40 0.43 0.44 0.45 0.43 0.46 0.54 0.59 0.59 0.54 0.56 0.62 0.69 0.74 0.80 0.83 0.86 0.88 0.91 0.92 0.94 0.95 0.95 0.93 0.91 0.91
0.27 0.26 0.25 0.25 0.26 0.26 0.26 0.25 0.24 0.23 0.23 0.23 0.23 0.25 0.28 0.33 0.39 0.36 0.34 0.36 0.39 0.40 0.39 0.42 0.48 0.52 0.51 0.51 0.56 0.62 0.69 0.77 0.85 0.91 0.90 0.90 0.88 0.89 0.90 0.91 0.92 0.91 0.89 0.87
0.24 0.24 0.24 0.25 0.26 0.26 0.27 0.26 0.26 0.24 0.24 0.24 0.22 0.22 0.23 0.25 0.27 0.29 0.30 0.31 0.32 0.35 0.36 0.39 0.43 0.46 0.49 0.52 0.58 0.63 0.69 0.75 0.79 0.81 0.83 0.85 0.85 0.86 0.86 0.87 0.85 0.86 0.85 0.83
0.21 0.21 0.22 0.21 0.20 0.21 0.24 0.27 0.28 0.28 0.28 0.31 0.30 0.25 0.25 0.25 0.26 0.26 0.27 0.28 0.29 0.31 0.34 0.37 0.40 0.45 0.48 0.52 0.56 0.60 0.63 0.67 0.71 0.75 0.78 0.81 0.84 0.85 0.85 0.85 0.85 0.84 0.83 0.82